Regional Weather Roundup
Issued by NWS

Home | Current Version | Previous Version | Graphics & Text | Print | Product List | Glossary On
Versions: 1 2 3 4 5 6 7 8 9 10 11 12 13 14 15 16 17 18 19 20 21 22 23 24 25 26 27
000
ASUS45 KTFX 281710
RWRMT
MONTANA REGIONAL WEATHER ROUNDUP
NATIONAL WEATHER SERVICE GREAT FALLS MT
1100 AM MDT TUE MAR 28 2017

NOTE: "FAIR" INDICATES FEW OR NO CLOUDS BELOW 12000 FEET WITH NO
SIGNIFICANT WEATHER AND/OR OBSTRUCTIONS TO VISIBILITY.

MTZ001>007-043-281800-
WEST OF THE DIVIDE

CITY           SKY/WX    TMP DP  RH WIND       PRES   REMARKS
KALISPELL      CLOUDY    42  33  70 S13       30.18S
MISSOULA       CLOUDY    41  35  79 E5        30.25S
BUTTE          PTSUNNY   37  17  44 W9        30.18R WCI  30
MULLAN PASS    LGT SNOW  28  27  96 SW7       30.16S VSB 1   WCI  21
ANACONDA         N/A     37  16  41 W16       30.18R WCI  28
DEER LODGE       N/A     37  23  56 N6        30.22R
EUREKA           N/A     45  30  57 SE13      30.16R
HAMILTON         N/A     45  21  39 CALM      30.23F
PLAINS           N/A     39  33  79 CALM      30.22R
RONAN            N/A     44  32  63 SE8       30.24R
$$

MTZ008-052>055-281800-
SOUTHWEST MONTANA

CITY           SKY/WX    TMP DP  RH WIND       PRES   REMARKS
BOZEMAN        SUNNY     44  24  45 VRB6      30.18F
DILLON         SUNNY     40  21  46 S6        30.17S
W YELLOWSTONE  SUNNY     32  19  59 CALM      30.15F
ENNIS          SUNNY     39  23  52 CALM      30.22S
THREE FORKS      N/A     46  46 100 CALM      30.15S
TWIN BRIDGES     N/A     41  17  38 SW6       30.15S
$$

MTZ009-010-012-014-046-048-049-054-281800-
EAST SLOPES AND CENTRAL MONTANA

CITY           SKY/WX    TMP DP  RH WIND       PRES   REMARKS
CUT BANK       PTSUNNY   47  23  38 SW28      30.05S
GREAT FALLS    CLOUDY    47  23  38 SW18G28   30.11S
MALMSTROM AFB  CLOUDY    46  24  42 SW18G26   30.12S
HELENA         PTSUNNY   48  23  37 W16       30.17S
CHOTEAU          N/A     48  19  32 W18       30.10R
CONRAD           N/A     48  30  50 E3        30.09S
$$

MTZ011-013-016-021-045-047-050-051-281800-
NORTH CENTRAL MONTANA

CITY           SKY/WX    TMP DP  RH WIND       PRES   REMARKS
HAVRE          SUNNY     52  28  39 SW18      30.08F
LEWISTOWN      MOSUNNY   46  24  42 W12       30.12R
N BAR RANCH      N/A     46  21  36 NW13      30.13S
CHINOOK          N/A     52  25  35 SW15      30.08S
FORT BENTON      N/A     50  25  37 MISG      30.13
$$

MTZ017>020-022>027-061-062-281800-
NORTHEAST MONTANA

CITY           SKY/WX    TMP DP  RH WIND       PRES   REMARKS
GLASGOW        CLOUDY    39  34  82 SW3       30.10R
SIDNEY         MOSUNNY   44  39  82 NW9       30.09R
WOLF POINT     CLOUDY    40  36  86 CALM      30.11R FOG
MALTA          SUNNY     52  34  50 W10       30.08S
PLENTYWOOD       N/A     37  37 100 CALM      30.08S
POPLAR           N/A     37  36  93 CALM      30.12R
SCOBEY           N/A     37  31  79 CALM      30.06R
$$

MTZ028>42-056>058-281800-
SOUTHCENTRAL AND SOUTHEAST MONTANA

CITY           SKY/WX    TMP DP  RH WIND       PRES   REMARKS
BAKER          PTSUNNY   52  35  52 S8        30.06S
BILLINGS       PTSUNNY   44  32  62 NW7       30.14S
LIVINGSTON     SUNNY     44  23  43 W14G23    30.15S
MILES CITY     CLOUDY    51  34  52 NW25G35   30.07S
BIG TIMBER     SUNNY     45  23  42 W23G32    30.15F
EKALAKA          N/A     51  35  54 NW6       30.03
FORSYTH          N/A     43  41  93 SW10      30.11S
LAUREL           N/A     45  25  45 W10       30.11F
$$

REGIONAL REPORTS...DAKOTAS

CITY           SKY/WX    TMP DP  RH WIND       PRES   REMARKS
WILLISTON      CLOUDY    43  37  79 NE5       30.09R
MINOT          CLOUDY    39  37  92 E7        30.13R FOG
DICKINSON      PTSUNNY   47  37  68 SE8       30.06S
BEACH            N/A    N/A N/A N/A S9        30.09
TIOGA          CLOUDY    39  39 100 SE6       30.10R
WATFORD CITY     N/A     46  41  81 SE7       30.07R
BISMARCK       CLOUDY    43  37  79 NE7       30.14S
GRAND FORKS    PTSUNNY   45  37  73 N7        30.20R
FARGO          CLOUDY    44  39  82 N5        30.18S
BUFFALO SD       N/A     55  40  56 SE9       29.98S
RAPID CITY     LGT RAIN  42  38  85 CALM      30.03R FOG
$$

REGIONAL REPORTS...WYOMING/IDAHO/WASHINGTON

CITY           SKY/WX    TMP DP  RH WIND       PRES   REMARKS
GILLETTE       CLOUDY    43  37  79 NW22G28   30.04S
SHERIDAN       RAIN      37  34  89 NW15      30.15R WCI  28
BUFFALO WY     LGT RAIN  40  34  79 N23G36    30.09R
CODY           MOSUNNY   39  34  82 N10       30.14R
YELLOWSTONE LA   N/A     31  21  66 VRB3      30.14S
IDAHO FALLS    MOSUNNY   40  28  62 VRB3      30.18F
SALMON         MOSUNNY   43  25  49 N5        30.21S
BOISE          SUNNY     44  32  62 NW9       30.28R
SPOKANE        CLOUDY    40  34  79 SW17G24   30.23S
$$

REGIONAL REPORTS...ALBERTA

CITY           SKY/WX    TMP DP  RH WIND       PRES   REMARKS
EDMONTON       FOG       30  30 100 NE2       29.89S VSB 1/4
CALGARY        PTSUNNY   48  18  29 SW10G20   29.91F
LETHBRIDGE     PTSUNNY   50  23  34 SW24G38   29.99F
MEDICINE HAT   MOSUNNY   54  27  35 SW18      29.99S
WATERTON GATE    N/A     41  23  48 SW20G28     N/A
CARDSTON         N/A     46  21  36 SW10        N/A
MILK RIVER       N/A     50  23  34 W17G23      N/A
$$

REGIONAL REPORTS...SASKATCHEWAN

CITY           SKY/WX    TMP DP  RH WIND       PRES   REMARKS
SWIFT CURRENT  SUNNY     48  32  53 SW13G18   29.98S
REGINA         CLOUDY    37  34  87 SE17      30.10F WCI  28
SASKATOON      CLOUDY    39  34  81 SE14      30.06F WCI  31
CYPRESS HILLS    N/A     45  28  53 SW8         N/A
$$




USA.gov is the U.S. government's official web portal to all federal, state and local government web resources and services.